GFSSE_700_rhum_057.txt.gz
RH
38 44 48 64 69 66 54 47 47 45 46 45 34 22 9 4 7 10 13 15 17 17 18 17 16 17 19 19 19 18 18 17 16 15 14 14 14 14 15 16 18 19 20
39 45 47 58 67 62 54 52 51 51 52 45 37 22 9 5 10 13 16 18 20 19 18 20 25 25 21 20 21 21 20 19 18 18 18 17 17 16 15 16 16 16 16
51 52 55 68 78 67 58 56 58 52 60 54 42 22 9 7 12 17 20 22 22 21 24 25 24 26 28 28 28 29 29 27 26 23 20 18 18 18 19 20 18 17 17
46 52 57 61 86 75 65 59 55 54 64 63 39 21 8 12 18 20 23 23 26 26 26 28 32 33 34 34 33 35 35 32 27 24 27 24 22 20 17 17 17 19 19
62 45 55 59 85 83 73 63 57 63 67 58 32 18 10 19 21 24 25 27 32 30 33 39 40 40 39 38 37 35 34 32 29 26 22 20 20 20 20 20 18 16 15
77 67 59 63 96 88 76 69 67 69 61 51 28 15 14 22 25 28 29 33 38 37 42 44 45 46 44 44 41 35 25 21 19 20 20 19 18 18 18 18 20 19 18
88 85 70 70 95 97 86 83 80 69 58 45 24 12 18 25 30 29 32 37 38 44 48 50 48 47 47 47 46 40 27 22 22 21 20 19 18 18 17 18 18 18 18
95 93 89 93 98 100 98 97 90 74 59 35 20 16 22 27 33 35 37 38 41 47 52 54 52 50 50 51 46 31 26 25 25 23 24 23 21 20 19 19 18 17 17
79 87 97 99 99 99 99 100 94 75 48 27 17 24 26 32 36 38 40 41 44 50 54 56 54 52 52 55 45 32 28 29 28 29 27 28 27 24 20 18 19 19 19
82 95 97 97 100 98 99 98 81 37 19 25 25 28 34 39 40 44 43 43 49 55 60 58 56 54 52 55 40 30 30 32 34 29 30 28 29 29 26 24 21 20 20
64 63 79 84 78 94 90 96 99 83 32 32 31 37 42 44 46 44 42 45 53 57 59 58 57 56 58 46 33 32 36 38 35 33 30 30 30 30 30 24 23 22 21
69 90 79 95 94 98 91 98 98 92 52 37 42 45 54 50 48 46 44 48 55 59 59 60 57 58 57 50 35 39 43 40 35 32 31 27 25 23 21 19 22 24 24
82 96 100 96 100 99 100 100 100 97 63 49 51 61 72 65 50 51 48 51 64 63 65 65 61 60 66 52 38 43 46 44 43 42 41 36 37 34 35 36 34 38 43
83 94 100 98 99 98 100 100 98 97 88 66 82 82 82 61 58 53 50 59 67 71 68 64 62 69 74 53 42 45 49 47 43 44 43 41 41 38 34 32 35 42 47
86 99 92 90 100 100 100 100 98 100 95 89 91 85 62 62 58 52 53 62 69 71 69 67 75 79 80 53 43 51 44 41 42 45 46 45 45 43 43 43 39 38 38
100 100 99 100 100 100 100 100 99 99 100 94 72 65 67 62 60 57 60 66 73 73 71 78 65 79 65 44 52 48 47 51 56 60 59 46 39 42 47 43 35 35 40
97 100 100 100 100 100 100 100 98 92 94 76 66 70 66 59 60 61 62 68 77 76 71 59 62 59 45 46 53 52 57 66 65 65 67 58 46 45 51 56 39 39 46
78 99 100 99 97 98 99 96 89 77 76 68 65 62 59 59 65 70 65 76 82 71 56 56 50 46 47 52 55 62 71 66 67 70 67 64 64 59 57 50 41 43 49
44 63 68 75 77 82 92 85 77 80 65 56 56 54 57 62 63 73 71 90 77 71 54 52 49 50 51 54 58 64 69 70 68 69 58 61 63 60 54 47 41 46 43
38 43 43 39 64 81 76 67 58 53 47 47 48 52 84 84 73 78 83 82 77 74 60 54 56 52 53 54 58 61 64 68 73 70 65 58 50 46 43 46 44 42 40
32 22 19 18 18 27 44 44 40 36 38 40 46 51 58 67 81 84 81 82 79 79 78 61 53 52 56 56 62 65 64 62 65 66 69 60 50 46 49 49 47 44 41
34 28 22 19 17 15 15 20 27 32 38 42 48 52 68 69 83 90 85 84 85 88 80 62 58 57 59 58 64 68 75 94 96 86 70 57 48 51 52 50 46 42 34
46 44 39 36 36 37 44 38 35 35 36 42 48 57 62 85 84 98 97 99 99 98 66 66 66 66 80 65 67 74 85 95 99 100 85 62 63 58 52 48 42 33 23
44 48 52 52 54 58 63 75 70 66 66 69 74 77 83 88 99 95 98 100 100 97 70 74 99 84 85 88 71 80 99 100 99 92 98 85 75 62 51 39 27 20 9
42 41 44 48 50 55 58 63 67 72 75 78 80 83 89 93 96 94 92 96 100 100 99 100 100 93 98 87 85 100 95 100 92 90 79 75 76 68 68 38 16 13 9
39 43 47 49 51 56 56 57 63 67 74 77 80 82 87 93 99 100 99 98 100 98 100 100 97 89 96 97 100 90 88 99 100 96 98 88 68 50 35 32 18 8 6

GFSSE_700_rhum_060.txt.gz
RH
56 42 38 41 40 56 61 52 42 38 36 31 23 17 3 4 7 9 11 14 15 15 16 15 16 18 19 18 17 16 16 15 15 15 14 13 14 14 14 14 14 15 15
75 50 49 54 70 66 63 50 45 42 42 36 26 19 5 6 10 12 16 16 17 17 16 20 22 20 19 20 20 20 19 18 17 17 16 16 16 16 15 15 15 14 15
99 95 57 56 65 70 62 52 50 51 55 46 32 20 8 8 13 16 19 20 18 20 22 22 24 26 27 28 29 29 28 26 24 23 21 19 18 17 16 16 16 16 16
46 88 69 61 64 73 62 59 58 62 57 51 40 21 9 10 17 20 21 21 23 25 26 28 32 34 34 34 32 32 31 28 26 23 21 21 21 20 19 17 16 15 15
40 49 63 58 87 81 68 62 62 56 53 55 42 21 10 13 20 23 23 26 27 30 36 39 39 38 37 37 32 27 24 24 23 23 21 19 18 18 18 18 18 18 16
69 54 68 71 93 91 76 68 66 64 73 69 39 19 11 18 24 26 27 31 33 39 44 45 44 44 42 42 39 31 23 20 17 18 18 17 17 16 16 15 15 15 16
81 81 90 87 86 96 84 74 74 78 84 60 30 14 15 23 27 28 34 36 41 45 46 45 46 46 47 47 40 28 24 22 20 20 20 19 18 17 16 16 17 16 17
79 95 90 97 98 100 95 89 83 81 69 39 21 13 20 27 30 32 38 39 44 46 49 47 44 44 48 48 33 28 27 25 21 21 20 20 18 18 16 15 15 16 16
73 75 91 100 99 99 100 98 91 74 52 25 15 21 27 32 34 37 40 41 45 50 50 46 45 46 49 49 36 30 29 28 25 23 23 22 21 20 18 17 15 14 14
73 74 80 77 89 100 100 100 94 66 32 16 23 28 33 37 40 43 44 44 50 53 51 47 47 47 45 38 31 30 32 32 29 27 26 25 24 21 17 16 15 15 15
70 66 71 76 59 74 76 98 98 88 72 32 30 35 42 46 46 48 44 48 55 55 50 51 48 50 50 44 33 33 37 35 31 27 25 22 20 19 17 16 17 17 20
61 55 55 75 89 84 82 78 91 96 90 44 41 47 50 51 55 51 52 52 57 61 55 53 53 55 59 50 36 39 40 40 35 33 29 26 26 26 27 26 26 26 26
51 60 79 100 98 98 93 97 98 99 100 58 61 61 57 59 56 54 49 52 57 58 58 57 57 60 58 58 41 42 45 44 33 36 34 32 29 28 27 27 29 24 25
40 74 89 100 98 96 97 100 100 98 99 59 68 70 80 85 77 70 54 57 66 70 64 62 59 62 63 67 44 43 47 42 39 39 35 34 30 29 27 29 32 32 30
98 99 98 95 100 99 100 99 99 98 96 94 96 83 96 76 68 68 57 60 70 68 63 61 64 60 66 66 46 47 50 48 50 33 39 40 38 36 43 44 43 45 36
94 98 99 100 97 100 97 100 100 99 99 96 94 92 95 73 71 61 56 67 67 68 64 67 60 60 62 59 43 55 48 47 46 46 46 53 53 52 47 47 48 46 41
81 98 99 99 100 100 100 100 99 99 100 97 93 92 88 72 67 57 58 59 69 68 70 57 54 52 54 45 48 46 49 52 52 61 58 49 46 46 47 51 46 42 36
72 97 98 99 99 98 99 100 98 97 98 89 83 77 67 63 62 59 59 64 72 80 72 59 57 56 51 46 44 45 49 51 58 61 68 66 60 57 48 42 38 35 35
50 64 75 85 99 99 94 81 70 86 70 64 63 66 65 63 59 60 68 76 82 86 69 62 58 56 54 50 46 50 54 55 59 59 60 68 73 65 51 41 41 44 41
33 48 52 63 71 72 80 72 72 85 72 67 64 62 60 57 58 66 77 79 79 84 73 72 70 63 56 53 54 50 52 57 60 62 62 68 69 64 50 45 46 44 41
22 28 34 55 57 63 68 69 68 69 55 53 58 57 54 64 75 80 78 82 83 84 83 80 83 74 68 62 56 64 60 60 57 61 63 72 74 63 56 59 58 52 45
21 19 17 19 34 63 61 57 43 45 46 46 46 45 49 63 72 83 87 92 87 83 87 81 95 95 89 75 69 72 68 75 71 73 90 95 80 69 74 69 60 51 46
31 29 30 26 16 18 22 35 38 43 43 41 40 42 47 69 75 86 83 83 91 90 92 90 100 99 100 98 75 95 82 74 78 96 99 100 96 84 74 63 60 52 48
41 45 45 47 48 48 47 34 29 36 40 46 45 48 59 60 61 75 84 87 95 91 95 97 98 100 99 98 98 99 85 86 94 99 99 100 100 98 87 72 60 54 37
41 41 48 50 48 52 54 58 79 89 67 63 69 73 72 81 85 89 92 96 100 99 98 100 100 99 100 100 100 97 96 97 100 98 99 99 98 93 92 75 63 44 17
40 40 41 42 45 47 46 55 68 93 81 71 75 77 79 92 86 87 90 93 90 99 100 100 100 100 100 99 99 99 98 100 98 95 97 99 97 91 82 71 52 23 9

GFSSE_700_rhum_063.txt.gz
RH
60 82 90 78 74 68 55 51 45 39 34 27 19 6 3 3 5 8 9 12 13 12 13 13 14 16 17 18 16 15 14 13 12 11 12 11 12 12 12 12 13 13 14
70 68 68 91 91 82 64 55 45 40 35 28 20 8 3 5 8 10 12 13 14 14 15 18 19 19 18 17 17 17 16 15 15 14 14 14 14 13 13 13 13 13 13
54 54 68 97 98 86 68 57 53 48 39 31 21 13 5 7 10 14 15 15 15 17 20 20 20 22 23 24 23 22 21 21 22 21 20 19 18 17 16 16 15 15 14
42 42 54 53 98 92 80 76 66 62 58 41 25 17 8 7 12 16 17 17 19 21 22 24 26 29 29 29 28 25 24 23 23 21 20 19 19 19 18 18 17 16 15
58 42 37 67 96 92 75 78 69 60 52 46 30 17 9 10 15 18 20 21 24 26 28 32 34 34 34 31 29 27 22 17 17 18 19 18 16 16 16 16 16 16 16
60 50 61 92 78 92 77 73 72 70 58 55 35 17 10 14 18 20 24 26 29 36 39 39 39 38 38 37 34 30 21 18 16 16 15 14 14 13 13 13 12 12 12
68 74 77 85 81 84 81 84 74 82 88 69 31 15 12 18 23 24 28 30 40 42 42 42 41 40 41 40 36 31 23 19 18 17 16 15 14 13 12 12 12 12 13
86 88 98 98 99 98 98 100 94 96 91 48 22 14 16 22 26 29 33 38 44 45 44 41 39 40 44 41 36 36 28 23 20 19 17 17 16 16 15 14 13 13 13
76 88 90 100 100 99 100 99 99 99 79 18 15 16 22 29 30 34 38 44 46 48 46 43 43 46 46 43 37 32 27 26 26 21 19 19 18 19 18 16 14 13 13
61 72 77 73 66 85 100 100 100 97 80 16 21 24 32 34 36 40 43 47 52 51 48 48 46 44 39 33 30 29 27 28 24 22 21 22 20 18 15 13 13 13 14
65 70 72 73 77 81 65 86 93 94 25 36 34 40 42 42 43 45 49 55 49 58 51 50 48 49 46 39 33 32 31 32 29 25 22 21 19 18 18 20 20 20 20
62 59 57 56 64 92 84 74 84 97 65 46 48 55 58 48 52 52 54 60 58 58 57 54 54 52 56 48 36 36 35 36 33 29 25 25 25 26 23 20 21 20 20
42 36 40 52 71 94 81 69 72 73 87 88 89 84 85 57 60 55 54 60 53 68 60 58 57 57 62 56 42 39 37 42 34 27 26 25 24 26 27 26 24 23 26
26 28 31 62 97 97 89 91 96 100 98 84 53 55 57 68 69 56 60 50 59 66 65 61 58 61 57 63 50 42 40 39 34 33 32 35 35 31 28 28 30 34 37
58 90 93 86 89 92 89 98 99 100 98 50 49 59 74 87 77 73 55 52 66 76 71 65 65 50 54 63 53 41 47 38 40 41 42 40 37 34 35 38 40 39 35
53 97 100 99 91 89 100 77 100 99 98 74 60 72 88 87 80 64 56 56 72 80 70 65 57 48 51 56 47 45 51 47 38 39 41 40 43 42 43 40 38 36 33
60 89 100 100 100 83 98 98 99 100 99 97 99 94 95 94 78 64 56 53 63 73 69 68 57 48 49 56 44 47 51 53 41 34 41 48 52 51 52 56 47 36 33
73 100 99 98 97 94 100 100 99 100 97 98 100 94 91 87 68 59 59 58 63 62 72 69 56 51 48 46 47 49 51 49 54 51 52 52 57 55 57 58 52 41 42
44 85 100 100 100 100 83 99 99 100 98 99 99 86 79 69 60 55 60 60 64 67 83 72 70 59 54 52 52 47 45 48 49 50 56 57 57 59 62 56 48 48 54
34 39 56 94 100 87 88 99 96 84 78 90 78 71 66 66 61 57 61 68 68 68 85 84 77 76 79 67 63 51 51 52 49 52 55 60 60 69 77 66 56 64 62
13 32 34 34 50 50 49 57 52 52 59 64 65 60 60 57 54 53 59 63 71 76 86 90 81 82 92 100 99 78 57 56 54 58 59 61 66 67 75 73 64 66 54
18 18 16 35 34 42 54 57 53 46 48 52 57 59 59 54 56 60 90 79 80 82 83 83 85 88 95 100 99 100 98 98 74 78 73 72 82 68 64 72 67 63 58
35 32 28 20 25 40 54 48 48 55 54 48 48 50 47 48 53 66 84 92 92 90 92 97 86 90 95 96 100 84 100 100 97 99 86 84 98 93 78 84 80 80 75
40 41 44 39 25 28 27 30 32 38 38 37 38 40 42 45 52 69 73 83 91 86 89 98 94 91 99 97 99 99 100 99 99 99 94 99 100 92 95 87 85 77 78
34 38 42 43 45 44 44 41 45 42 39 41 44 44 53 62 53 56 67 81 89 93 95 92 96 99 90 100 98 99 98 100 99 99 99 100 100 99 95 93 97 91 82
34 35 35 36 41 43 44 42 45 48 58 62 67 71 74 77 90 79 84 86 90 90 93 95 95 97 98 98 100 100 99 98 99 99 92 100 97 100 100 90 97 89 89

GFSSE_700_rhum_069.txt.gz
RH
46 70 64 76 94 76 74 67 80 75 62 34 24 17 7 5 5 4 4 4 5 8 9 9 9 8 11 14 13 13 13 13 12 11 11 12 12 12 12 12 13 13 13
44 48 68 68 89 76 76 76 73 66 51 33 20 8 5 4 4 4 5 5 7 10 10 10 10 14 14 13 14 15 15 15 14 14 14 14 13 14 14 14 13 13 13
65 62 68 66 84 85 80 78 76 67 47 37 21 6 5 4 4 4 6 7 8 9 10 10 14 14 17 19 19 19 18 18 18 17 16 17 17 16 16 15 15 14 14
57 62 68 58 67 71 82 80 85 95 77 47 15 6 6 6 7 7 10 12 12 11 10 12 16 19 23 24 22 22 22 21 20 20 19 19 18 17 16 15 15 15 15
60 64 61 62 72 74 87 84 63 87 97 53 11 7 9 10 9 12 14 14 13 12 14 16 20 24 26 26 24 22 20 20 21 20 19 17 16 14 14 13 12 12 12
56 57 62 58 93 98 100 98 89 80 98 64 8 11 15 15 14 16 15 14 14 15 17 21 24 28 28 27 27 21 17 16 16 15 14 13 12 12 11 11 10 11 10
50 54 67 73 84 98 97 99 100 96 94 78 12 13 19 19 18 18 16 17 18 18 20 25 28 29 30 31 28 22 17 15 14 14 13 12 12 11 10 10 10 10 11
65 72 66 75 80 89 100 100 96 99 96 86 12 20 22 22 21 20 20 22 24 24 25 30 30 30 35 34 32 27 21 17 15 14 14 12 12 12 12 12 11 11 12
64 68 86 93 98 98 100 86 99 100 99 63 26 21 24 26 23 23 24 29 29 32 32 31 32 34 38 41 32 28 24 21 20 17 16 15 15 13 12 12 12 14 14
67 66 81 85 73 74 98 90 100 100 99 84 68 56 24 27 26 28 32 37 36 36 34 34 37 44 42 33 30 28 26 24 20 19 18 16 14 14 15 16 15 14 13
69 74 82 80 73 73 97 77 100 100 98 98 69 28 29 30 34 37 41 44 42 40 38 36 39 40 39 33 31 28 28 26 22 20 18 17 16 17 18 17 16 18 18
63 68 70 77 84 87 85 76 92 95 98 86 47 32 31 36 42 46 51 51 48 45 45 39 36 40 48 43 33 31 32 30 25 21 20 20 18 18 19 20 21 23 27
61 56 60 70 75 79 70 74 84 90 93 97 95 41 39 45 46 51 52 55 51 49 52 44 45 41 45 49 41 37 34 31 26 24 22 20 20 22 23 24 27 29 28
42 36 32 51 69 88 82 74 77 99 99 97 95 54 51 51 47 61 58 58 54 55 62 55 54 44 46 53 48 42 37 34 26 26 26 28 31 31 31 32 31 29 32
20 18 32 58 81 94 84 80 75 81 90 92 98 96 64 57 67 69 63 57 57 61 56 57 50 51 47 56 55 46 39 36 29 28 34 37 40 38 37 36 38 37 39
14 17 53 96 75 100 87 84 86 92 100 99 100 100 92 86 82 69 65 62 64 60 58 56 61 51 41 53 57 48 41 39 32 30 31 35 41 44 45 45 45 48 48
26 42 82 90 99 99 100 99 100 100 100 100 100 100 99 86 87 70 65 67 66 62 57 56 63 49 39 38 45 47 40 37 34 34 34 39 43 45 48 50 55 58 56
30 49 98 97 99 100 99 100 100 97 97 99 100 100 99 97 96 74 68 69 63 65 58 56 69 53 49 46 43 46 42 40 41 40 38 40 43 48 49 52 57 61 59
27 48 84 98 100 100 98 100 100 98 100 99 100 99 99 99 93 88 81 75 57 60 58 59 73 57 55 54 53 49 48 47 45 45 45 45 47 48 52 57 62 66 59
22 37 78 98 100 100 100 99 100 100 99 99 99 99 99 99 94 96 91 66 55 54 55 63 77 63 64 66 66 68 69 62 52 56 57 52 54 56 62 65 68 66 62
21 31 78 97 100 99 98 100 100 100 100 100 99 99 99 99 98 93 79 62 55 53 62 68 78 74 78 80 85 89 90 89 81 87 91 78 83 88 77 80 76 72 64
21 25 38 66 84 85 100 100 100 100 100 100 99 99 90 90 88 88 72 62 58 58 65 79 76 89 96 96 99 97 91 88 84 98 98 99 90 97 98 96 86 74 63
28 24 24 30 38 55 72 76 97 98 99 99 98 97 97 95 93 80 70 62 59 60 61 67 80 99 100 100 100 100 98 95 99 96 99 100 96 100 100 100 83 59 62
33 30 27 25 31 34 38 44 56 76 98 100 100 99 95 80 79 71 62 60 87 89 75 90 93 95 99 95 92 100 98 99 100 97 97 94 96 100 100 99 80 73 78
36 33 34 33 27 29 29 31 36 43 58 66 64 59 61 67 67 61 57 61 68 85 82 87 90 99 99 100 100 100 99 100 91 100 99 98 99 100 100 100 92 95 83
31 35 29 31 36 36 36 35 34 35 38 43 44 45 53 59 60 58 58 58 57 64 72 76 81 80 86 92 90 98 94 100 99 97 100 100 98 100 100 100 100 100 99